• în Republica Moldova
  • Lista ţărilor
  • Pe 7 zile
  • Temperatura apei
  • Hartă satelitară
  • Meteo pe hartă
  • Widget-uri
  • user-avatar
    Intrare

    Meteo pe oră la Nachiczewan

    Astăzi, 20 Ianuarie, Vineri

    Timp Temperatura Precipitaţii Vânt Presiune Umiditate
    00:00 -5°C° 0 mm 0 m/s 688 mmHg 84%
    01:00 -5°C° 0 mm 0 m/s 688 mmHg 84%
    02:00 -6°C° 0 mm 0 m/s 688 mmHg 83%
    03:00 -6°C° 0 mm 0 m/s 688 mmHg 83%
    04:00 -6°C° 0 mm 0 m/s 688 mmHg 82%
    05:00 -6°C° 0 mm 1 m/s 688 mmHg 82%
    06:00 -6°C° 0 mm 1 m/s 688 mmHg 82%
    07:00 -5°C° 0 mm 0 m/s 688 mmHg 81%
    08:00 -3°C° 0 mm 0 m/s 689 mmHg 79%
    09:00 -2°C° 0 mm 0 m/s 689 mmHg 78%
    10:00 0°C° 0 mm 0 m/s 689 mmHg 76%
    11:00 +1°C° 0 mm 0 m/s 689 mmHg 73%
    12:00 +3°C° 0 mm 0 m/s 689 mmHg 71%
    13:00 +2°C° 0 mm 0 m/s 689 mmHg 74%
    14:00 +3°C° 0 mm 1 m/s 689 mmHg 76%
    15:00 +3°C° 0 mm 1 m/s 688 mmHg 78%
    16:00 +1°C° 0 mm 1 m/s 688 mmHg 82%
    17:00 -1°C° 0 mm 1 m/s 688 mmHg 85%
    18:00 -3°C° 0 mm 0 m/s 688 mmHg 88%
    19:00 -4°C° 0 mm 0 m/s 688 mmHg 88%
    20:00 -4°C° 0 mm 0 m/s 688 mmHg 88%
    21:00 -4°C° 0 mm 0 m/s 688 mmHg 88%
    22:00 -4°C° 0 mm 0 m/s 688 mmHg 88%
    23:00 -5°C° 0 mm 0 m/s 688 mmHg 88%

    Mâine, 21 Ianuarie, Sâmbătă

    Timp Temperatura Precipitaţii Vânt Presiune Umiditate
    00:00 -5°C° 0 mm 0 m/s 687 mmHg 88%
    01:00 -5°C° 0 mm 0 m/s 687 mmHg 88%
    02:00 -6°C° 0 mm 0 m/s 687 mmHg 88%
    03:00 -6°C° 0 mm 0 m/s 687 mmHg 88%
    04:00 -6°C° 0 mm 0 m/s 687 mmHg 88%
    05:00 -6°C° 0 mm 0 m/s 687 mmHg 88%
    06:00 -6°C° 0 mm 0 m/s 687 mmHg 88%
    07:00 -5°C° 0 mm 0 m/s 688 mmHg 86%
    08:00 -4°C° 0 mm 0 m/s 688 mmHg 84%
    09:00 -2°C° 0 mm 0 m/s 689 mmHg 82%
    10:00 -1°C° 0 mm 0 m/s 689 mmHg 79%
    11:00 +1°C° 0 mm 1 m/s 689 mmHg 75%
    12:00 +2°C° 0 mm 1 m/s 688 mmHg 72%
    13:00 +2°C° 0 mm 1 m/s 688 mmHg 73%
    14:00 +2°C° 0 mm 1 m/s 688 mmHg 75%
    15:00 +2°C° 0 mm 1 m/s 687 mmHg 76%
    16:00 0°C° 0 mm 1 m/s 687 mmHg 81%
    17:00 -3°C° 0 mm 0 m/s 687 mmHg 85%
    18:00 -5°C° 0 mm 0 m/s 687 mmHg 90%
    19:00 -5°C° 0 mm 0 m/s 687 mmHg 90%
    20:00 -6°C° 0 mm 0 m/s 687 mmHg 89%
    21:00 -6°C° 0 mm 0 m/s 687 mmHg 89%
    22:00 -6°C° 0 mm 0 m/s 687 mmHg 89%
    23:00 -7°C° 0 mm 0 m/s 687 mmHg 89%

    Poimâine, 22 Ianuarie, Duminică

    Timp Temperatura Precipitaţii Vânt Presiune Umiditate
    00:00 -7°C° 0 mm 0 m/s 687 mmHg 88%
    01:00 -7°C° 0 mm 0 m/s 687 mmHg 88%
    02:00 -7°C° 0 mm 0 m/s 687 mmHg 88%
    03:00 -7°C° 0 mm 1 m/s 687 mmHg 88%
    04:00 -7°C° 0 mm 1 m/s 687 mmHg 88%
    05:00 -7°C° 0 mm 1 m/s 687 mmHg 87%
    06:00 -8°C° 0 mm 1 m/s 687 mmHg 87%
    07:00 -6°C° 0 mm 1 m/s 687 mmHg 84%
    08:00 -4°C° 0 mm 1 m/s 688 mmHg 81%
    09:00 -3°C° 0 mm 1 m/s 688 mmHg 79%
    10:00 -2°C° 0 mm 1 m/s 688 mmHg 75%
    11:00 0°C° 0 mm 1 m/s 688 mmHg 72%
    12:00 +1°C° 0 mm 1 m/s 688 mmHg 69%
    13:00 +1°C° 0 mm 1 m/s 688 mmHg 70%
    14:00 +1°C° 0 mm 1 m/s 688 mmHg 71%
    15:00 +1°C° 0 mm 1 m/s 688 mmHg 72%
    16:00 -1°C° 0 mm 1 m/s 688 mmHg 77%
    17:00 -3°C° 0 mm 1 m/s 688 mmHg 81%
    18:00 -6°C° 0 mm 0 m/s 688 mmHg 85%
    19:00 -7°C° 0 mm 0 m/s 689 mmHg 85%
    20:00 -7°C° 0 mm 1 m/s 690 mmHg 84%
    21:00 -7°C° 0 mm 1 m/s 690 mmHg 84%
    22:00 -7°C° 0 mm 1 m/s 691 mmHg 84%
    23:00 -7°C° 0 mm 1 m/s 691 mmHg 84%

    23 Ianuarie, Luni

    Timp Temperatura Precipitaţii Vânt Presiune Umiditate
    00:00 -7°C° 0 mm 1 m/s 691 mmHg 83%
    01:00 -8°C° 0 mm 1 m/s 692 mmHg 83%
    02:00 -8°C° 0 mm 1 m/s 692 mmHg 83%
    03:00 -8°C° 0 mm 1 m/s 692 mmHg 83%
    04:00 -8°C° 0 mm 1 m/s 693 mmHg 83%
    05:00 -8°C° 0 mm 1 m/s 693 mmHg 83%
    06:00 -9°C° 0 mm 1 m/s 693 mmHg 84%
    07:00 -7°C° 0 mm 1 m/s 694 mmHg 81%
    08:00 -6°C° 0 mm 1 m/s 695 mmHg 78%
    09:00 -4°C° 0 mm 1 m/s 696 mmHg 75%
    10:00 -2°C° 0 mm 1 m/s 696 mmHg 71%
    11:00 -1°C° 0 mm 1 m/s 696 mmHg 67%
    12:00 +1°C° 0 mm 1 m/s 696 mmHg 63%
    13:00 +1°C° 0 mm 1 m/s 696 mmHg 66%
    14:00 +1°C° 0 mm 1 m/s 695 mmHg 68%
    15:00 +1°C° 0 mm 1 m/s 695 mmHg 71%
    16:00 -1°C° 0 mm 1 m/s 695 mmHg 75%
    17:00 -4°C° 0 mm 1 m/s 695 mmHg 79%
    18:00 -7°C° 0 mm 0 m/s 694 mmHg 83%
    19:00 -7°C° 0 mm 0 m/s 694 mmHg 83%
    20:00 -7°C° 0 mm 0 m/s 694 mmHg 83%
    21:00 -8°C° 0 mm 0 m/s 695 mmHg 83%
    22:00 -8°C° 0 mm 0 m/s 694 mmHg 83%
    23:00 -8°C° 0 mm 0 m/s 694 mmHg 83%

    24 Ianuarie, Marţi

    Timp Temperatura Precipitaţii Vânt Presiune Umiditate
    00:00 -8°C° 0 mm 0 m/s 694 mmHg 82%
    01:00 -8°C° 0 mm 0 m/s 694 mmHg 82%
    02:00 -8°C° 0 mm 0 m/s 694 mmHg 81%
    03:00 -9°C° 0 mm 0 m/s 693 mmHg 81%
    04:00 -9°C° 0 mm 0 m/s 693 mmHg 80%
    05:00 -9°C° 0 mm 0 m/s 693 mmHg 79%
    06:00 -9°C° 0 mm 1 m/s 693 mmHg 78%
    07:00 -7°C° 0 mm 1 m/s 693 mmHg 74%
    08:00 -6°C° 0 mm 1 m/s 694 mmHg 70%
    09:00 -3°C° 0 mm 1 m/s 694 mmHg 66%
    10:00 -1°C° 0 mm 1 m/s 694 mmHg 62%
    11:00 0°C° 0 mm 1 m/s 694 mmHg 58%
    12:00 +2°C° 0 mm 1 m/s 693 mmHg 54%
    13:00 +2°C° 0 mm 1 m/s 693 mmHg 57%
    14:00 +2°C° 0 mm 1 m/s 692 mmHg 60%
    15:00 +2°C° 0 mm 1 m/s 691 mmHg 63%
    16:00 -1°C° 0 mm 1 m/s 691 mmHg 66%
    17:00 -3°C° 0 mm 1 m/s 691 mmHg 69%
    18:00 -6°C° 0 mm 1 m/s 690 mmHg 72%
    19:00 -6°C° 0 mm 1 m/s 690 mmHg 69%
    20:00 -6°C° 0 mm 1 m/s 690 mmHg 66%
    21:00 -6°C° 0 mm 1 m/s 690 mmHg 63%
    22:00 -6°C° 0 mm 1 m/s 690 mmHg 60%
    23:00 -7°C° 0 mm 1 m/s 689 mmHg 58%

    25 Ianuarie, Miercuri

    Timp Temperatura Precipitaţii Vânt Presiune Umiditate
    00:00 -7°C° 0 mm 1 m/s 689 mmHg 56%
    01:00 -7°C° 0 mm 1 m/s 689 mmHg 56%
    02:00 -7°C° 0 mm 1 m/s 688 mmHg 55%
    03:00 -7°C° 0 mm 1 m/s 688 mmHg 55%
    04:00 -6°C° 0 mm 1 m/s 688 mmHg 54%
    05:00 -6°C° 0 mm 1 m/s 688 mmHg 54%
    06:00 -6°C° 0 mm 1 m/s 688 mmHg 53%
    07:00 -4°C° 0 mm 1 m/s 688 mmHg 52%
    08:00 -2°C° 0 mm 1 m/s 688 mmHg 51%
    09:00 -3°C° 0 mm 2 m/s 688 mmHg 50%
    10:00 -1°C° 0 mm 2 m/s 687 mmHg 51%
    11:00 +1°C° 0 mm 2 m/s 687 mmHg 52%
    12:00 +3°C° 0 mm 2 m/s 686 mmHg 53%
    13:00 +3°C° 0 mm 2 m/s 686 mmHg 57%
    14:00 +3°C° 0 mm 2 m/s 685 mmHg 60%
    15:00 +3°C° 0 mm 2 m/s 685 mmHg 64%
    16:00 +2°C° 0 mm 2 m/s 685 mmHg 64%
    17:00 +1°C° 0 mm 2 m/s 685 mmHg 64%
    18:00 -1°C° 0 mm 2 m/s 685 mmHg 64%
    19:00 -1°C° 0 mm 2 m/s 685 mmHg 63%
    20:00 -1°C° 0 mm 2 m/s 685 mmHg 62%
    21:00 -1°C° 0 mm 2 m/s 685 mmHg 61%
    22:00 -2°C° 0 mm 2 m/s 685 mmHg 61%
    23:00 -2°C° 0 mm 2 m/s 684 mmHg 62%
    Arată mai mult